RH
6 6 6 5 6 6 6 6 7 7 7 8 8 10 13 14 17 22 21 17 14 11 11 13 17 23 18 13 36 74 91 91 92 89 86 92 98 100 101 100 102 96 83 82 82 63 47 45 44 41 41 39 36 35 30 24 20 18 16 13 11 10 9
6 6 6 5 5 6 6 6 6 7 7 7 7 8 10 13 16 19 19 18 15 12 13 14 16 24 22 13 30 70 95 97 99 98 94 96 99 100 101 100 101 98 90 86 82 70 55 50 48 45 46 45 41 38 33 25 21 19 16 15 14 12 11
6 6 5 5 6 5 6 6 6 6 7 7 7 7 8 10 11 14 15 16 15 14 16 16 15 25 30 20 32 72 97 100 102 102 99 98 100 101 101 100 101 100 95 91 86 76 62 54 53 51 50 50 47 43 36 26 21 19 17 15 15 13 12
6 6 6 6 6 6 6 6 6 7 6 7 7 7 7 8 8 11 16 20 20 19 21 18 15 27 40 33 37 73 99 101 103 103 101 101 100 100 101 100 100 101 98 95 91 83 69 59 57 57 56 54 51 47 38 27 21 19 17 16 15 15 14
6 6 6 7 6 7 7 6 7 7 6 7 7 7 7 8 7 8 13 17 20 21 23 20 13 22 45 43 37 67 99 102 102 103 101 102 102 100 101 101 100 100 100 99 96 88 77 66 60 60 60 58 55 51 41 30 24 21 18 16 15 16 16
7 7 7 7 7 7 7 7 7 7 7 7 7 7 7 7 8 7 9 10 12 17 18 15 9 13 35 41 30 56 97 104 100 103 101 101 103 100 100 101 100 100 100 100 98 93 84 72 63 62 63 62 59 55 45 33 28 24 19 17 17 17 18
7 7 8 7 8 8 7 8 8 7 8 7 7 9 7 8 8 7 8 8 8 12 10 9 9 8 22 33 23 46 94 105 99 104 102 100 102 101 100 101 100 100 100 100 100 96 89 77 68 64 65 65 63 57 48 38 31 27 22 18 17 17 19
8 8 9 8 8 9 8 8 9 8 9 8 8 9 8 9 9 7 10 9 7 10 8 7 10 6 15 24 16 40 91 105 99 103 101 99 102 101 100 101 100 100 100 100 101 98 92 85 73 66 66 68 64 59 53 44 34 28 25 21 18 18 19
9 9 9 9 9 10 9 9 9 9 10 10 9 10 9 9 9 7 9 9 7 10 8 7 9 6 11 14 10 42 94 105 99 102 100 99 102 100 100 101 100 101 100 99 101 99 95 90 79 68 67 69 65 62 59 48 35 29 26 23 21 20 19
11 10 10 10 10 10 9 10 10 9 10 10 10 10 10 9 9 9 8 9 9 9 8 8 8 7 9 7 14 57 100 104 98 102 100 99 101 100 100 101 99 100 100 99 100 100 98 94 84 72 68 70 69 67 62 50 37 32 28 24 22 21 22
12 11 11 11 10 10 10 10 10 10 10 10 10 11 11 10 10 9 8 9 8 7 8 8 8 11 10 7 30 76 104 101 99 102 100 99 101 100 100 101 100 100 101 99 100 101 99 96 88 77 71 72 72 70 64 51 39 34 30 26 23 22 23
13 12 12 13 12 12 11 10 10 10 9 10 11 12 15 16 15 15 15 14 14 13 11 9 11 16 14 20 55 93 103 99 100 101 100 100 100 100 100 100 100 100 100 100 100 100 99 97 93 82 73 73 75 74 68 53 40 36 33 29 24 22 25
15 15 14 15 14 13 13 11 11 10 10 13 14 18 30 37 38 36 31 27 28 27 22 18 17 17 22 45 82 102 100 100 101 100 100 100 100 100 100 100 101 100 100 101 101 100 99 100 98 87 77 78 80 78 70 54 42 38 35 31 26 25 27
17 16 16 17 17 17 16 15 15 14 19 25 28 39 62 73 72 68 61 55 56 51 41 33 24 23 43 75 98 102 99 101 101 99 100 100 100 100 100 100 100 100 100 101 101 101 100 102 101 92 84 84 84 80 70 55 44 40 37 32 29 28 28
20 20 20 21 26 28 25 26 29 31 38 49 59 72 90 94 88 81 72 70 74 70 59 47 37 45 74 96 101 100 100 100 100 100 100 100 100 100 100 100 100 99 100 100 99 100 101 103 102 97 91 88 87 83 72 57 47 42 37 34 33 31 29
28 31 32 34 42 49 46 45 54 60 67 79 89 95 101 99 94 87 78 75 79 77 68 59 58 73 94 102 99 100 101 100 100 100 100 100 101 100 100 100 99 100 101 100 99 98 99 101 102 100 95 90 90 87 73 58 50 43 39 38 37 33 29
39 46 52 56 64 72 71 72 80 88 92 99 103 101 101 101 100 97 94 92 92 88 82 76 80 92 100 100 100 101 100 100 101 100 100 101 100 100 100 98 99 101 101 100 100 99 99 101 102 102 98 93 94 91 75 60 51 44 43 44 40 35 30
54 59 69 77 82 89 92 92 96 101 102 102 102 101 100 100 100 100 100 99 98 97 96 94 96 100 100 100 101 100 99 100 101 100 100 101 100 100 100 99 101 102 101 100 100 100 100 101 101 103 101 97 99 97 82 64 54 49 49 47 42 37 33
68 71 79 88 94 100 103 102 101 102 103 101 100 100 100 100 100 100 100 100 100 100 100 100 100 100 100 100 101 100 100 100 100 100 99 100 101 101 99 100 102 102 101 100 100 100 99 98 99 103 102 99 102 101 87 67 55 51 50 48 46 42 38
78 80 88 96 102 103 103 103 102 101 101 101 100 100 100 100 100 100 100 100 100 100 100 100 100 100 100 101 100 100 100 100 101 101 99 99 101 102 101 102 102 102 101 100 100 101 99 97 99 102 102 101 103 101 86 66 53 51 51 51 50 49 45
85 90 96 101 103 102 101 101 101 101 101 100 100 100 100 100 100 100 100 100 100 100 100 100 100 100 100 101 101 100 101 100 100 100 99 99 101 101 103 103 102 101 101 100 100 101 100 99 101 102 101 101 102 98 82 63 54 55 56 56 60 61 55
90 98 101 101 100 100 101 101 100 100 100 100 100 100 100 100 100 100 100 100 99 100 100 99 99 100 101 102 102 102 101 101 101 100 98 99 101 101 102 102 101 100 101 101 101 101 100 100 102 103 101 100 100 94 80 66 62 62 62 67 75 76 65
96 102 101 100 100 100 100 100 100 100 100 100 100 100 100 100 100 100 100 101 100 100 100 99 98 100 101 102 103 103 102 100 100 100 99 99 101 101 101 102 101 101 101 101 101 100 100 100 101 102 103 101 98 90 79 70 66 66 72 83 89 83 69
100 103 100 100 101 100 100 100 100 100 100 100 100 100 100 100 100 100 100 99 98 97 97 97 98 100 102 104 103 103 102 100 100 101 100 99 100 100 100 101 101 101 101 101 100 100 101 100 101 102 102 98 92 85 79 74 72 76 88 99 97 86 72
102 102 99 99 100 99 100 101 100 100 100 100 100 100 100 100 100 100 97 93 90 89 91 96 99 102 103 104 103 102 101 101 101 100 100 100 101 100 100 100 101 100 101 101 101 101 101 100 98 98 98 96 91 87 84 84 86 93 101 104 98 86 74
98 97 94 93 96 99 99 100 100 100 100 100 100 100 100 100 100 100 97 93 90 90 93 97 100 103 104 103 101 101 100 100 99 98 98 99 101 100 100 100 101 101 101 101 101 100 99 97 97 98 99 98 95 93 93 95 99 102 103 102 97 89 81
89 91 91 89 93 99 100 100 101 100 100 100 100 100 100 100 100 101 101 99 97 97 99 100 101 103 103 101 101 101 100 99 96 95 97 99 100 101 101 99 99 101 101 100 99 98 97 98 100 101 102 100 99 99 100 102 103 102 102 103 100 94 93
90 94 97 95 99 101 98 99 101 100 100 100 100 100 100 100 100 101 101 102 101 101 102 102 102 102 102 101 101 100 99 99 98 97 99 101 101 102 99 95 97 100 100 99 99 99 100 102 103 102 102 102 101 101 103 104 105 103 102 103 101 98 100
97 100 100 99 101 102 98 99 101 100 100 100 100 100 100 100 100 100 100 101 102 101 101 101 100 101 101 101 100 99 100 102 102 102 102 102 102 103 97 93 95 99 98 97 101 102 102 102 102 101 101 101 101 101 103 105 105 104 103 103 102 102 102
99 100 100 99 100 101 100 100 100 100 100 100 100 100 100 100 100 100 100 100 100 100 100 100 100 100 100 100 101 102 102 103 104 103 102 101 102 102 97 93 93 95 96 99 102 103 101 100 101 101 101 100 101 102 104 103 103 103 103 103 103 104 103
100 99 101 101 100 100 100 100 100 100 100 100 100 100 100 100 100 100 100 101 100 100 100 100 100 100 99 99 101 102 102 104 104 103 101 101 100 98 97 93 89 91 97 101 101 101 100 100 100 100 100 100 101 102 103 103 102 103 103 103 103 104 104
100 100 101 100 100 100 100 100 100 100 100 100 100 100 100 100 100 100 100 100 100 101 102 101 100 99 99 99 100 101 100 102 103 101 101 102 99 96 97 96 91 92 99 101 100 100 101 100 100 100 100 100 100 100 102 102 102 102 103 103 103 105 105
100 100 100 100 100 100 100 100 101 100 100 101 101 100 100 101 100 100 100 100 100 101 101 101 101 100 100 100 100 100 100 101 101 100 101 101 100 98 100 100 98 98 101 100 100 100 100 100 100 100 100 100 100 100 100 101 102 103 104 104 104 104 105
100 99 100 100 99 100 100 100 101 101 100 100 100 100 100 100 100 100 100 100 100 100 100 101 100 101 101 100 100 100 101 101 101 100 100 101 101 101 102 102 102 101 101 100 101 101 100 100 100 100 100 100 100 100 100 101 101 102 103 104 104 104 103
102 100 100 99 98 99 100 100 100 100 100 100 100 100 100 100 100 100 100 100 100 100 100 100 100 100 100 100 100 100 101 100 100 100 100 100 101 101 101 101 101 101 101 101 101 100 100 101 100 100 101 101 100 100 100 100 100 101 101 102 103 103 102
104 102 100 97 96 99 100 100 100 100 100 100 100 100 100 101 101 100 100 100 100 100 100 100 100 100 100 100 100 100 100 100 100 100 100 100 100 100 100 100 100 101 101 100 100 100 100 100 100 100 101 101 101 101 100 100 100 101 100 101 102 102 102
Wind_Speed
62 62 63 63 63 63 63 63 64 64 64 65 66 66 66 65 64 64 64 64 64 62 62 60 55 54 56 54 53 53 52 53 53 51 51 50 51 52 53 54 55 57 57 55 53 49 44 43 42 42 42 41 40 40 40 40 39 38 38 37 37 37 36
62 62 63 63 63 63 62 62 62 63 63 64 66 66 66 66 66 66 65 66 66 64 63 62 56 53 54 52 52 52 51 52 52 51 51 51 51 52 53 53 54 55 56 56 54 51 46 43 42 43 42 40 40 40 40 39 38 36 36 36 37 37 36
63 62 62 62 62 62 61 61 61 61 62 63 65 66 67 67 67 68 67 67 67 65 65 63 56 51 52 51 50 51 51 50 50 50 51 51 51 52 53 53 53 54 55 57 55 51 47 44 43 43 42 41 40 40 39 39 37 35 35 35 36 37 36
63 62 62 62 61 61 61 61 61 61 61 61 63 64 66 67 67 68 68 68 68 66 65 64 56 49 50 50 50 50 50 50 49 50 51 51 51 52 52 52 52 53 54 56 56 52 48 46 44 43 42 41 39 39 39 38 36 34 34 34 35 36 35
63 63 63 62 62 62 62 62 62 62 62 61 62 63 64 66 67 67 68 68 68 67 66 64 58 49 47 50 51 50 50 50 49 49 50 51 51 51 52 52 52 53 53 55 56 53 49 46 45 44 42 41 40 39 38 38 35 33 33 34 34 34 34
64 64 64 64 63 63 63 63 62 63 62 62 62 62 63 65 66 67 68 69 69 68 66 64 59 51 48 50 53 51 51 51 50 49 50 50 50 50 51 52 52 52 53 54 55 54 50 47 46 44 43 41 40 39 38 37 34 33 33 33 32 33 33
65 65 65 65 65 64 64 63 63 63 62 61 61 61 62 63 65 67 68 69 69 68 67 63 59 54 49 50 53 52 51 52 51 50 49 49 49 49 50 52 52 51 52 53 55 54 51 48 46 45 43 40 40 40 38 35 34 33 32 31 32 32 32
66 66 66 65 65 65 64 63 63 62 61 61 60 60 61 62 63 65 66 68 68 67 65 62 58 54 50 50 53 53 51 52 50 49 49 48 48 49 50 51 51 50 51 53 54 54 51 48 46 46 44 41 41 40 36 35 35 33 30 30 31 32 31
66 66 66 65 65 64 64 63 62 61 60 59 59 58 59 60 61 62 64 65 65 64 62 61 58 54 51 52 53 51 51 51 49 48 48 47 47 48 49 50 50 49 50 52 54 54 52 49 47 46 44 42 40 38 35 35 36 32 29 30 30 30 31
65 65 65 65 65 64 63 62 61 59 58 57 57 57 58 58 58 59 61 61 62 62 60 58 56 53 51 51 50 49 49 49 47 46 46 46 46 48 49 49 49 49 49 51 53 54 52 50 47 46 44 41 38 36 35 36 36 32 29 30 29 29 30
65 65 65 65 65 64 63 61 59 57 56 55 55 55 56 56 56 56 57 57 58 59 57 55 53 50 48 47 47 48 48 47 45 44 43 44 45 46 48 48 48 48 48 50 53 53 52 51 48 44 43 40 37 35 35 36 35 32 30 29 29 28 28
64 64 64 64 63 62 61 60 58 56 54 53 53 52 52 53 53 53 53 53 53 54 54 53 50 47 45 45 45 46 46 44 43 42 42 42 43 44 46 46 46 46 47 49 51 51 51 51 47 43 42 40 36 35 36 36 35 32 30 29 28 27 27
64 63 62 62 62 61 60 58 56 54 53 51 50 49 48 48 48 48 48 48 48 50 51 50 47 44 43 43 42 43 43 42 41 41 41 41 42 43 44 44 43 44 46 47 49 50 50 49 45 42 41 39 36 36 37 37 35 32 30 29 28 27 27
63 62 61 61 61 60 58 56 54 52 50 48 46 43 41 41 40 41 43 44 44 46 48 47 45 43 41 40 40 40 40 39 39 39 40 42 43 44 44 43 41 42 43 44 46 48 48 46 43 41 40 38 37 38 39 36 34 33 31 29 27 27 27
64 63 62 61 60 59 56 53 50 49 46 43 41 37 35 36 37 39 42 43 42 44 46 46 44 41 39 39 38 37 36 35 36 37 40 42 44 44 44 43 43 43 43 44 46 47 46 43 42 40 39 39 39 39 38 35 35 34 31 28 27 28 27
64 64 62 60 57 55 52 49 46 44 41 37 35 33 32 33 36 40 43 44 44 45 46 45 43 41 39 38 37 35 32 32 34 36 39 42 43 43 43 43 43 43 43 44 45 45 43 40 40 40 40 40 39 38 36 36 36 34 30 28 28 28 27
63 62 61 58 53 49 47 44 41 38 35 32 31 30 29 30 33 36 39 40 42 44 45 44 41 39 38 36 34 32 29 30 33 36 39 40 41 41 42 43 43 42 42 42 41 40 39 38 39 39 39 40 39 37 37 37 36 32 29 28 28 28 26
62 59 56 53 48 44 42 40 37 34 30 28 26 25 26 27 29 31 34 37 40 42 42 41 39 37 37 35 32 29 27 28 32 35 37 38 38 39 40 41 40 40 40 40 39 38 37 37 38 39 39 39 38 36 37 38 34 32 30 29 28 27 26
59 56 51 47 42 38 37 36 34 31 28 26 23 21 21 23 25 28 32 35 37 37 37 37 36 35 34 33 30 28 27 29 31 34 36 36 36 37 37 36 35 36 36 37 37 37 36 37 39 40 40 40 38 37 37 36 34 33 32 28 27 26 26
55 51 46 41 36 33 32 31 31 29 26 24 21 19 19 21 25 28 31 33 33 33 33 34 33 32 32 30 28 27 28 29 30 33 35 34 34 34 32 31 32 33 33 34 34 35 36 38 40 41 42 40 38 37 37 35 34 34 31 27 27 26 25
49 45 40 34 30 28 27 27 27 27 26 23 20 19 19 22 26 28 30 31 31 30 31 32 32 31 30 28 26 26 28 28 30 32 33 32 30 28 27 28 30 31 31 33 35 36 37 39 40 42 43 41 39 38 36 35 34 33 29 27 26 25 24
42 37 31 25 22 21 22 23 24 26 25 22 20 20 20 22 25 26 27 29 30 29 30 30 30 28 26 25 24 25 27 28 28 30 31 29 25 23 25 28 29 30 32 34 35 37 39 40 41 43 43 40 39 37 35 34 33 31 28 25 24 23 23
33 27 23 20 18 18 19 21 22 24 24 21 19 20 21 23 24 24 24 26 28 27 27 28 27 25 24 23 23 24 25 26 27 28 29 26 22 22 25 29 30 31 33 34 35 36 38 40 41 42 40 38 36 34 33 33 32 29 26 23 22 22 23
26 21 21 20 20 19 19 20 21 21 20 20 18 18 21 23 25 25 25 26 27 26 26 25 24 23 22 22 23 24 24 25 26 27 26 23 22 24 27 29 31 32 33 33 34 35 36 38 40 40 37 35 34 33 32 32 31 27 23 22 22 23 24
22 19 21 22 22 22 22 21 20 18 16 16 16 16 19 22 25 28 30 30 28 25 22 22 22 21 21 22 23 24 25 27 29 29 26 24 25 26 27 29 31 32 31 32 33 32 33 35 36 35 33 32 32 33 33 32 30 25 22 22 23 23 24
20 19 23 24 24 26 28 26 22 17 13 11 11 12 14 16 20 25 28 28 26 21 16 17 19 19 20 21 23 24 26 29 30 30 28 28 29 29 28 28 30 31 30 30 30 29 29 31 32 31 32 33 34 34 33 31 28 24 23 24 24 23 24
21 23 28 28 28 31 32 29 25 19 13 9 7 6 6 9 12 18 22 23 21 17 12 12 15 18 19 21 23 25 27 28 28 29 29 30 32 32 31 29 28 28 27 26 26 26 26 28 30 31 33 34 33 31 29 27 25 23 24 25 25 25 24
25 29 32 30 30 34 34 29 24 19 13 9 6 3 2 4 7 11 15 18 16 14 12 11 13 17 19 22 23 25 26 26 27 28 29 30 31 32 32 29 27 25 24 24 24 25 26 28 29 31 31 31 29 28 26 26 24 24 26 28 27 25 23
25 28 30 26 26 31 33 29 26 20 14 9 6 3 1 3 5 7 11 13 13 13 13 11 10 13 17 20 22 23 24 25 26 27 28 29 29 30 30 29 27 25 25 25 25 26 27 27 27 27 27 27 26 26 25 25 24 25 27 28 26 25 23
17 19 22 21 22 24 24 24 25 20 14 9 6 5 3 3 5 6 8 11 11 12 12 11 11 13 16 19 20 20 21 22 23 24 25 27 28 28 28 29 28 26 25 25 25 25 25 25 24 24 24 24 24 24 24 23 23 24 24 25 25 24 23
13 12 14 16 17 17 17 18 21 18 12 8 7 6 4 1 3 3 5 8 9 9 10 12 14 16 17 18 18 18 18 19 21 23 23 26 28 28 28 28 29 28 27 26 26 25 24 23 23 22 22 22 22 22 22 21 20 21 21 22 22 22 21
11 10 10 11 11 13 15 17 19 17 11 7 9 9 6 3 2 1 2 5 7 8 8 11 14 17 17 17 15 15 17 18 20 22 24 27 28 29 29 30 30 29 29 27 26 25 24 24 23 22 22 22 22 21 19 18 18 19 20 20 20 20 20
9 7 7 7 7 8 10 13 16 16 12 8 8 9 7 5 5 4 1 3 6 8 8 10 13 16 15 14 14 16 18 20 21 23 25 27 29 29 31 30 29 28 28 27 25 25 25 24 24 23 22 21 21 20 19 18 18 19 20 19 19 18 19
7 4 1 3 5 7 9 11 13 14 12 9 8 7 6 5 8 7 4 2 5 8 9 11 13 14 14 15 17 18 20 20 20 21 24 27 29 30 29 28 27 26 25 24 23 23 23 23 23 23 22 21 20 19 19 18 18 18 18 18 18 18 19
5 3 3 2 3 6 7 9 12 14 13 10 8 7 6 6 8 8 8 6 6 8 9 10 12 15 17 19 20 19 19 18 16 16 21 27 29 28 27 26 25 24 23 22 22 21 21 21 20 20 21 21 20 20 20 18 17 16 15 15 16 17 18
8 4 5 3 1 4 5 5 8 12 13 11 9 7 6 6 8 9 9 8 10 11 11 11 14 18 19 20 20 19 19 18 17 17 21 25 26 25 24 24 24 23 22 22 22 22 21 20 19 18 19 20 20 21 21 19 17 16 16 15 15 16 17
Wind_Direction
298 297 296 295 293 292 291 289 288 287 286 285 284 283 282 281 280 279 279 279 278 278 277 276 276 273 270 268 265 263 262 260 257 253 250 249 248 249 249 250 251 252 251 249 245 239 236 237 240 243 245 247 248 249 249 248 248 248 248 248 249 250 252
298 297 296 295 293 292 290 288 287 285 284 283 282 281 280 279 278 277 277 277 277 277 277 277 277 274 271 268 265 262 261 259 257 253 249 247 247 247 248 248 249 250 251 250 246 241 238 237 238 241 244 246 247 248 248 248 248 249 248 248 248 249 251
299 298 296 295 293 292 290 288 287 285 283 281 280 279 278 277 276 276 275 275 275 276 276 277 277 274 271 269 264 261 261 259 257 254 249 246 245 245 246 246 247 248 249 249 247 242 239 237 237 240 243 245 246 247 247 248 248 248 249 249 249 248 249
300 298 297 295 293 291 290 288 286 285 282 280 279 277 277 276 275 274 274 274 274 275 275 276 276 272 271 270 265 261 261 258 256 254 250 247 245 243 244 245 246 247 247 247 246 242 238 237 237 239 242 244 245 246 247 246 246 247 248 248 249 248 248
300 298 296 294 293 291 289 287 286 284 282 280 278 276 275 275 274 274 273 273 273 274 274 275 275 271 270 271 267 262 260 258 255 254 251 248 245 242 242 243 244 245 246 246 246 243 238 236 236 238 241 243 245 246 246 245 245 246 246 247 248 250 250
299 297 296 294 293 291 289 288 286 284 282 280 278 276 274 273 272 272 272 272 272 273 273 274 273 270 269 269 266 261 259 258 255 253 252 249 246 243 240 241 243 244 244 245 244 243 239 235 234 237 239 242 244 246 245 244 244 245 245 246 247 250 251
298 297 295 294 293 291 290 288 286 285 283 280 278 276 273 271 270 270 270 270 271 272 272 272 272 270 268 267 264 260 258 257 255 252 252 250 247 243 239 240 242 242 243 243 243 242 239 235 233 235 238 240 243 245 244 244 244 243 244 246 246 248 250
298 296 295 294 293 292 290 289 287 286 284 282 279 276 273 271 269 268 268 268 269 270 271 271 271 269 267 263 260 257 255 256 255 252 251 249 246 242 238 238 240 241 241 242 242 240 238 235 232 232 236 238 241 244 245 244 243 240 241 245 247 248 249
298 297 296 295 293 292 291 290 288 287 286 284 281 278 274 271 269 267 267 267 267 268 269 269 269 268 264 260 257 254 253 254 254 252 250 248 244 240 237 237 239 240 240 240 240 239 237 235 231 230 234 237 240 243 245 244 242 239 238 242 245 249 251
299 298 298 296 295 294 292 291 290 288 287 285 282 279 275 272 269 266 265 265 265 266 266 266 266 264 261 258 255 252 251 253 253 251 249 247 242 238 236 237 238 238 238 238 239 238 236 235 231 229 232 237 239 242 243 242 241 240 238 240 243 247 251
301 300 299 298 297 295 294 292 291 289 287 284 281 278 275 272 269 266 264 264 264 264 264 263 262 260 257 254 252 250 250 252 251 248 247 245 240 236 235 236 237 237 236 236 237 237 235 234 232 228 230 236 238 240 242 241 240 239 238 240 242 246 251
303 302 301 300 298 297 295 293 292 290 286 283 280 276 273 270 267 265 263 262 262 262 262 261 259 256 253 251 249 249 250 250 247 244 242 239 236 235 236 237 237 236 236 235 236 236 235 234 231 227 228 234 238 239 241 240 238 237 238 240 242 247 252
305 304 303 302 300 298 296 294 292 289 286 282 279 275 271 267 265 263 261 259 258 258 258 259 257 253 249 248 248 249 250 247 242 239 236 233 231 232 234 236 236 236 236 235 235 235 234 233 231 226 226 232 236 238 239 238 237 237 238 239 242 247 252
307 306 305 304 302 299 297 294 292 288 285 281 277 273 269 265 260 257 256 255 254 254 254 254 253 250 248 249 249 250 249 245 239 235 230 226 226 229 231 232 231 232 233 234 234 234 234 232 229 226 225 229 234 236 237 237 236 237 237 237 241 247 251
309 308 307 305 303 301 297 295 291 288 284 280 275 272 267 260 253 248 248 247 248 249 250 250 250 249 249 250 250 249 247 241 235 230 225 223 225 229 231 230 229 228 229 230 230 231 231 229 226 224 223 226 231 234 235 235 236 236 235 236 241 246 249
311 311 309 307 305 302 298 295 291 288 284 279 274 271 266 259 252 248 247 246 246 247 249 249 249 249 249 250 249 246 242 236 230 225 222 223 227 230 232 231 229 228 228 229 231 231 229 226 224 222 221 224 228 232 233 233 234 234 234 236 241 245 248
313 313 312 310 308 305 300 296 292 288 284 279 275 272 267 260 254 251 249 248 246 246 247 248 247 248 249 248 245 241 235 228 224 222 223 226 230 232 233 232 230 228 228 229 231 231 228 224 222 220 219 222 226 229 230 231 231 232 234 236 239 243 246
317 316 315 313 311 307 302 298 294 290 284 279 276 274 267 260 254 250 248 246 244 243 245 246 246 246 247 245 240 235 227 221 223 225 226 230 233 234 233 232 230 229 228 228 229 228 224 221 221 219 218 220 223 226 228 229 229 230 233 235 237 241 245
320 318 317 316 314 310 306 301 297 292 286 281 277 270 263 256 251 248 246 246 245 244 244 244 244 244 244 241 236 229 221 218 224 230 232 232 234 234 232 231 230 229 229 228 229 228 222 218 217 217 217 218 219 222 225 226 226 228 231 233 236 240 243
322 320 319 319 316 313 309 305 301 295 288 281 273 262 255 250 247 244 245 246 246 245 243 242 241 241 240 238 233 225 218 217 225 234 236 233 232 232 232 231 229 229 227 224 224 224 221 217 215 214 215 216 217 220 222 223 224 227 230 231 235 238 240
324 322 322 324 322 320 317 312 305 298 290 280 267 255 247 244 243 242 244 245 245 243 241 240 239 239 237 234 230 222 216 219 228 236 237 233 231 231 231 229 227 225 222 220 218 217 217 216 214 213 213 213 214 217 219 220 223 227 229 231 234 237 237
325 323 325 330 333 332 329 320 309 299 291 280 262 248 241 238 238 239 243 246 245 242 240 238 238 237 234 230 225 219 216 221 229 235 236 233 230 228 226 224 221 218 217 217 215 214 215 214 213 213 212 212 212 214 217 220 223 226 228 230 233 233 233
327 327 331 336 340 341 337 326 313 302 294 283 263 247 238 234 232 232 238 245 246 243 240 237 235 234 229 223 218 215 218 223 226 230 233 230 223 218 219 219 216 214 215 215 214 214 214 213 213 213 211 210 211 213 216 220 222 224 226 228 228 227 228
331 334 338 342 345 346 343 333 321 308 298 288 271 252 241 235 229 224 226 235 241 240 236 234 232 230 224 217 213 214 220 223 222 223 225 221 212 209 213 215 213 211 213 215 215 214 213 213 213 212 210 209 210 212 215 219 221 222 221 221 221 220 222
337 340 343 347 351 354 354 347 334 321 307 294 279 261 247 239 232 228 229 236 242 242 236 230 229 226 220 214 212 216 219 220 218 217 214 208 204 204 208 211 211 210 212 215 215 215 213 212 213 211 208 207 210 213 215 218 220 219 213 212 214 215 218
339 343 345 350 357 358 357 353 345 335 321 304 286 266 253 245 237 235 238 244 250 252 241 225 220 220 219 217 216 217 218 217 217 215 210 205 203 202 203 207 210 209 211 214 215 213 212 211 210 207 204 205 209 212 214 217 220 215 207 207 212 213 218
345 351 350 353 0 358 353 351 347 340 332 320 301 274 256 248 238 236 239 243 247 250 242 223 214 215 217 218 217 215 214 215 216 215 212 209 206 203 200 203 207 208 209 211 212 210 207 205 204 202 203 205 209 212 214 217 217 207 199 203 210 212 216
353 353 347 348 356 352 347 350 351 344 339 335 323 305 263 248 239 232 232 236 239 239 237 233 228 221 217 215 214 212 211 212 212 212 211 208 205 203 201 200 201 203 203 203 203 201 199 198 199 200 202 206 209 210 211 212 208 198 196 202 208 209 213
351 344 334 339 352 348 343 351 358 351 343 341 333 328 300 248 243 233 228 231 235 234 231 231 230 223 217 214 213 212 210 210 210 211 210 205 200 200 201 197 194 195 196 194 193 193 193 193 195 197 201 204 206 206 205 204 201 197 198 203 207 208 211
334 327 322 330 350 352 347 356 4 360 351 347 343 336 317 246 230 230 227 226 228 228 220 208 203 207 212 214 214 212 211 210 208 208 207 202 196 196 198 195 190 187 187 186 187 189 189 189 190 192 196 199 200 200 200 198 197 197 200 203 207 210 210
320 318 318 323 343 1 6 9 11 7 0 4 16 10 350 283 199 207 219 220 221 219 204 192 193 202 209 211 210 208 208 207 205 201 199 196 193 192 193 192 189 183 179 180 184 185 184 182 184 188 192 194 195 197 197 195 193 196 200 202 206 210 210
325 326 330 330 346 10 22 23 21 17 13 30 54 53 39 34 81 109 220 220 220 219 203 191 196 205 208 206 200 197 198 199 199 196 191 190 190 188 186 187 186 180 176 178 180 181 179 178 180 185 189 192 194 196 197 196 194 196 200 202 204 206 206
334 329 339 354 10 22 30 32 29 27 27 40 60 60 50 54 76 77 73 218 213 210 201 198 205 209 204 192 183 183 187 190 193 193 189 187 186 183 180 180 180 178 178 179 180 180 179 178 179 183 187 192 197 201 202 200 198 198 200 202 202 201 202
338 317 324 45 45 35 32 34 35 37 40 43 50 54 60 86 99 94 79 112 183 187 188 195 201 195 180 170 170 177 183 186 188 189 187 183 179 176 175 176 179 181 182 181 180 180 180 179 180 182 185 192 198 199 195 193 191 192 194 195 194 193 195
342 289 236 151 67 26 15 27 41 47 45 42 47 54 63 88 99 88 74 82 124 150 163 178 179 167 160 161 166 171 175 174 173 176 177 176 175 174 176 179 182 183 183 181 179 180 184 186 188 188 190 193 192 187 183 183 183 185 189 190 188 188 191
349 301 258 240 21 358 340 4 46 53 47 43 46 49 58 89 97 88 84 97 115 124 132 146 153 153 156 161 163 164 165 162 159 164 171 175 178 181 183 183 182 182 184 185 187 189 194 199 202 203 203 200 192 185 186 191 193 194 196 196 195 195 197